Wind_Speed
10 8 11 16 18 19 20 19 17 16 15 14 13 11 10 9 8 6 6 4 3 2 1 0 2 2 2 2 3 4 4 4 4 4 4 3 4 4 4 5 5 6 7
8 5 8 13 16 17 17 17 17 17 15 14 11 10 10 9 8 6 5 4 4 3 2 1 1 2 3 3 3 4 4 4 4 4 5 5 4 4 5 6 6 7 8
9 5 5 9 14 15 16 15 14 14 14 13 11 10 9 8 7 6 6 5 4 3 3 2 1 1 1 2 2 3 3 4 4 5 5 5 5 6 6 7 8 8 9
9 4 3 6 10 11 13 13 14 14 14 13 11 11 10 8 7 7 6 6 5 5 4 3 2 2 1 0 2 2 3 3 4 5 6 6 6 7 7 9 9 10 11
8 5 2 5 8 10 11 12 14 13 12 11 11 11 10 9 8 8 7 7 6 6 5 5 4 3 3 3 3 4 4 5 6 7 8 8 9 9 10 10 11 11 12
8 6 4 4 6 8 10 11 12 12 12 12 11 11 10 10 9 8 8 7 7 7 7 7 6 6 6 6 6 7 7 8 8 9 10 11 11 12 13 14 13 13 13
7 6 5 4 4 6 8 11 12 11 10 10 11 11 10 10 9 9 9 9 9 9 9 8 8 8 8 9 9 10 10 11 12 13 13 14 15 16 16 16 16 16 15
6 5 4 3 1 4 7 9 10 10 10 10 10 10 10 10 10 10 10 11 11 11 11 11 11 11 11 12 13 13 14 15 16 16 17 17 18 18 19 19 19 19 19
5 4 2 1 1 4 6 7 8 10 10 10 10 10 11 11 12 12 12 12 13 13 13 13 13 14 14 15 16 17 18 19 19 20 20 21 21 22 22 22 23 23 23
6 5 4 3 2 3 6 8 9 9 9 10 11 11 12 12 13 14 14 14 15 16 16 16 17 17 18 18 19 20 21 22 22 23 23 24 24 25 25 26 26 26 26
7 6 6 5 4 5 7 8 9 10 10 11 11 12 13 14 15 16 16 17 17 18 18 19 19 20 20 21 22 22 23 24 25 25 26 27 27 27 28 28 28 28 28
9 8 8 7 7 8 8 9 10 11 11 12 13 14 15 16 17 18 18 19 20 21 21 22 22 22 23 23 24 25 25 26 27 28 28 29 29 30 30 30 30 30 30
11 10 10 9 9 10 10 10 11 12 13 14 15 16 17 18 19 19 20 21 22 23 24 24 25 25 25 26 27 28 28 29 29 30 30 30 31 31 32 32 32 33 33
13 13 12 12 12 12 12 13 14 15 16 18 18 18 19 20 20 21 22 23 24 25 26 26 27 27 28 29 29 30 30 31 31 32 32 32 33 34 34 34 35 36 36
16 16 16 16 15 15 15 16 17 17 18 20 21 21 22 22 22 24 25 26 26 27 28 28 29 29 30 30 31 32 33 33 33 34 34 35 36 37 37 38 38 38 39
19 19 19 20 20 20 20 21 21 22 22 23 23 24 24 25 26 27 28 29 28 29 30 30 32 32 32 32 33 34 35 36 36 37 38 39 39 40 40 41 41 42 42
19 20 21 23 23 24 25 25 25 26 27 28 28 28 28 29 30 30 31 31 31 31 32 34 34 34 34 35 36 38 39 39 39 40 41 42 43 44 44 44 44 45 46
22 22 22 23 24 25 27 28 29 30 32 32 32 32 32 33 34 34 35 34 34 34 35 35 36 37 37 38 39 41 42 43 43 44 45 46 46 47 48 48 47 47 48
23 23 23 24 25 26 28 30 32 34 35 35 36 37 36 37 37 38 38 39 39 38 38 39 40 41 41 42 42 43 44 46 47 48 49 49 50 51 52 53 52 52 52
23 24 25 26 26 27 29 30 33 34 35 37 38 38 38 38 39 39 39 40 40 40 40 42 43 43 43 44 45 47 48 49 50 51 52 54 55 56 56 57 57 57 57
25 25 26 27 27 28 30 31 33 35 36 37 38 38 38 38 37 36 38 39 40 41 42 43 44 45 46 47 49 50 52 53 54 56 57 59 60 61 62 62 63 63 63
26 27 27 28 28 29 30 32 34 35 36 36 36 36 36 36 36 37 37 38 40 41 43 44 46 47 49 51 53 54 56 58 60 61 63 64 65 66 67 67 68 68 69
27 28 29 30 30 31 32 32 33 32 33 33 33 33 34 35 36 36 37 39 41 43 45 47 49 51 54 56 57 59 61 63 65 66 68 69 70 71 71 71 72 73 73
29 30 30 31 32 33 32 32 32 32 32 33 33 34 35 36 37 39 41 43 45 47 49 51 53 55 58 60 62 64 66 68 69 71 71 72 73 74 74 74 73 73 73
29 30 31 32 32 33 33 33 33 33 33 34 35 36 37 38 40 42 44 46 48 50 53 55 58 60 62 64 67 69 70 72 73 73 73 73 72 72 71 71 71 71 70
30 31 31 32 32 32 32 33 33 34 35 36 37 39 41 43 44 46 48 50 53 55 57 59 62 64 66 68 69 69 70 70 70 70 69 69 68 67 66 65 65 64 64
Wind_Direction
313 279 244 230 227 226 223 218 221 222 224 225 228 229 222 221 223 222 222 224 227 233 236 39 49 45 49 50 53 50 44 37 29 24 17 8 359 348 339 333 328 318 311
326 295 242 224 220 220 218 215 217 218 218 222 221 213 211 212 210 212 218 216 216 211 193 160 105 86 74 68 61 55 48 40 34 29 22 16 6 357 343 336 330 324 319
345 312 240 219 212 213 213 207 207 207 211 212 208 207 206 208 210 213 215 212 211 206 195 185 162 135 100 72 52 43 36 29 24 17 10 4 353 345 340 332 323 319 314
358 354 240 210 205 206 202 200 204 207 207 204 204 207 210 213 213 213 213 208 206 206 207 208 204 208 207 4 359 357 360 360 355 348 344 342 339 335 332 329 323 319 314
10 23 91 177 192 196 196 198 203 202 201 198 203 207 211 215 214 209 210 211 211 215 222 225 229 237 252 282 300 308 317 322 322 323 325 326 325 324 323 322 319 316 313
21 33 64 145 171 185 194 197 201 198 199 200 205 209 213 215 212 211 215 219 223 229 234 235 241 251 263 276 284 290 296 301 305 308 309 311 312 313 314 314 314 311 309
14 30 48 81 143 180 196 197 197 196 197 203 211 213 215 215 214 217 222 227 232 238 242 246 253 261 269 276 283 287 291 294 297 299 300 301 302 304 306 307 308 306 303
7 21 44 62 130 174 186 193 199 201 204 210 214 215 215 218 223 228 232 235 240 245 250 255 261 267 273 279 283 287 290 292 294 295 296 297 297 298 299 300 301 301 299
346 355 7 10 254 199 197 204 208 210 213 218 222 226 227 230 234 237 239 243 247 251 256 260 265 270 276 280 284 286 288 291 292 293 294 294 295 295 295 296 296 296 295
319 319 315 295 270 227 219 223 218 220 222 226 232 238 239 240 241 243 246 250 254 257 260 264 269 274 277 280 283 286 289 291 292 293 293 293 292 292 292 292 292 293 293
302 304 297 286 271 243 232 231 230 231 234 239 245 248 250 250 250 252 254 256 260 263 266 269 272 276 279 282 285 287 289 290 291 291 291 292 292 291 290 290 290 290 290
295 293 287 282 275 263 250 247 248 248 249 252 254 256 257 257 257 258 260 262 265 267 270 273 275 278 280 282 284 286 287 287 288 289 289 290 290 290 290 290 289 288 287
289 286 282 280 275 268 266 263 263 260 261 261 262 263 263 262 262 263 265 267 269 271 273 275 277 278 280 282 283 285 286 286 287 287 288 288 288 288 287 287 287 286 285
283 281 281 279 274 271 268 265 267 268 265 264 263 265 267 267 268 269 270 270 271 273 275 276 278 280 281 282 283 284 285 285 286 286 286 286 286 286 285 284 284 284 283
277 276 279 278 275 276 274 272 270 270 269 268 269 270 270 270 272 272 273 274 275 276 276 276 278 279 280 282 284 285 285 285 285 285 285 285 285 285 283 283 283 282 282
277 275 275 275 277 277 276 275 274 274 273 272 273 273 275 275 277 276 275 274 274 276 278 278 279 279 280 282 283 284 285 286 286 285 284 285 285 284 283 282 282 281 281
280 279 275 275 275 276 277 277 276 277 276 276 275 276 275 276 276 276 275 273 274 277 278 278 280 281 281 282 285 286 286 287 287 286 285 285 284 284 283 282 280 280 281
280 280 279 279 277 277 277 278 279 278 277 276 276 276 277 277 278 279 278 275 276 277 279 280 282 283 284 285 287 288 287 287 287 287 287 286 285 285 284 283 282 280 280
282 281 281 281 279 279 280 281 281 281 281 279 279 279 278 276 277 278 278 276 276 278 280 282 284 285 286 288 288 288 288 288 288 288 288 287 286 285 284 284 283 281 281
284 284 284 283 283 282 282 283 283 283 284 281 281 279 279 279 278 278 280 281 282 282 284 285 287 288 288 289 289 289 289 289 289 288 288 287 286 285 285 284 283 282 280
286 286 285 284 285 286 286 287 287 286 285 284 281 280 281 282 282 281 283 284 285 285 287 288 290 290 290 290 290 290 289 289 289 288 287 287 286 285 285 284 283 282 280
288 288 287 286 287 287 288 289 289 287 285 285 285 284 284 286 287 287 287 287 288 289 290 290 291 291 291 290 290 290 289 289 288 288 287 287 287 286 285 284 283 282 280
288 289 288 286 287 288 289 290 290 291 291 290 290 290 291 290 290 290 290 290 290 291 292 292 292 291 291 291 291 290 290 289 289 288 288 287 287 286 285 284 283 282 281
288 287 288 288 288 289 289 289 289 290 291 292 292 293 294 293 292 292 292 292 292 293 293 293 293 293 292 292 292 292 291 290 290 289 288 287 287 286 285 283 282 281 280
286 286 288 289 290 290 290 289 289 290 291 292 294 294 294 293 292 292 293 293 293 294 294 294 294 294 294 294 294 293 293 292 291 290 289 288 287 286 284 283 282 281 280
286 287 289 290 291 292 291 290 290 291 292 293 293 294 295 295 295 296 296 296 297 297 297 296 296 296 296 295 295 295 294 293 292 292 291 290 288 287 286 284 283 281 279
Height
5835 5834 5835 5837 5841 5844 5848 5852 5856 5860 5864 5867 5870 5872 5874 5876 5878 5879 5880 5881 5882 5882 5882 5882 5883 5883 5883 5883 5883 5882 5882 5882 5882 5883 5883 5883 5883 5883 5883 5883 5883 5883 5883
5835 5833 5834 5837 5840 5843 5846 5850 5854 5858 5862 5865 5868 5870 5873 5875 5877 5878 5879 5880 5881 5881 5882 5882 5883 5883 5883 5883 5883 5883 5883 5883 5882 5883 5883 5883 5883 5882 5882 5882 5882 5882 5882
5836 5834 5835 5836 5839 5842 5845 5849 5853 5856 5860 5863 5867 5869 5872 5874 5876 5877 5878 5879 5880 5881 5881 5882 5883 5883 5883 5883 5883 5883 5883 5883 5883 5883 5883 5882 5882 5882 5882 5881 5881 5881 5880
5837 5835 5835 5836 5839 5842 5845 5849 5852 5855 5859 5862 5866 5868 5871 5873 5875 5876 5877 5878 5879 5880 5881 5882 5882 5883 5883 5883 5883 5883 5883 5882 5882 5882 5882 5882 5881 5881 5881 5880 5879 5879 5878
5839 5837 5837 5838 5840 5843 5846 5849 5852 5855 5858 5862 5865 5867 5870 5872 5873 5875 5876 5877 5878 5879 5880 5881 5882 5882 5882 5882 5882 5882 5882 5882 5882 5881 5881 5880 5880 5879 5879 5879 5878 5877 5876
5842 5840 5839 5840 5841 5843 5846 5849 5852 5855 5858 5861 5864 5866 5868 5870 5872 5873 5875 5876 5877 5878 5879 5880 5881 5881 5881 5881 5881 5881 5881 5880 5880 5880 5879 5879 5878 5877 5876 5876 5875 5874 5874
5844 5843 5842 5842 5842 5843 5846 5849 5852 5855 5857 5860 5862 5865 5867 5868 5870 5872 5873 5875 5876 5877 5878 5878 5879 5879 5879 5879 5879 5879 5879 5878 5878 5877 5877 5876 5875 5875 5874 5873 5872 5871 5871
5845 5845 5844 5844 5845 5845 5846 5849 5852 5854 5857 5859 5861 5863 5865 5867 5868 5870 5871 5872 5874 5875 5875 5876 5876 5877 5877 5877 5876 5876 5876 5875 5875 5874 5874 5873 5872 5871 5870 5869 5868 5868 5867
5847 5846 5845 5846 5845 5846 5847 5849 5851 5854 5856 5858 5860 5862 5863 5865 5866 5867 5869 5870 5871 5872 5872 5873 5873 5873 5873 5873 5873 5873 5872 5872 5871 5870 5870 5869 5868 5867 5866 5865 5864 5863 5862
5847 5846 5846 5846 5846 5846 5847 5848 5850 5852 5854 5856 5858 5859 5861 5862 5863 5865 5866 5867 5868 5868 5869 5869 5869 5869 5869 5869 5868 5868 5868 5867 5866 5866 5865 5864 5863 5862 5861 5859 5858 5857 5856
5846 5846 5845 5846 5846 5846 5847 5848 5849 5851 5853 5854 5856 5857 5858 5859 5860 5861 5862 5863 5864 5864 5864 5864 5864 5864 5864 5864 5863 5863 5862 5861 5860 5859 5858 5857 5856 5855 5854 5853 5852 5851 5850
5845 5845 5844 5844 5845 5845 5845 5846 5848 5849 5850 5852 5853 5854 5855 5855 5856 5857 5857 5858 5859 5859 5859 5859 5859 5858 5858 5857 5857 5856 5855 5855 5854 5853 5852 5851 5849 5848 5847 5846 5845 5844 5843
5844 5843 5842 5842 5843 5843 5843 5844 5845 5846 5847 5848 5849 5850 5850 5851 5851 5852 5852 5853 5853 5853 5852 5852 5852 5851 5851 5850 5850 5849 5848 5847 5846 5846 5845 5843 5842 5841 5839 5838 5837 5836 5835
5842 5842 5841 5841 5841 5842 5842 5842 5843 5843 5844 5844 5843 5844 5845 5846 5846 5846 5846 5846 5846 5845 5845 5845 5844 5843 5843 5842 5842 5841 5840 5839 5838 5837 5836 5835 5834 5832 5831 5830 5828 5827 5825
5839 5839 5839 5839 5838 5839 5839 5839 5839 5840 5840 5839 5838 5839 5840 5840 5840 5840 5839 5839 5839 5838 5837 5837 5836 5835 5834 5833 5833 5832 5831 5830 5829 5828 5827 5826 5824 5823 5821 5820 5819 5817 5816
5836 5836 5835 5835 5835 5836 5836 5835 5835 5835 5834 5833 5833 5832 5832 5833 5833 5832 5832 5831 5830 5829 5827 5828 5827 5826 5825 5824 5823 5822 5821 5820 5819 5818 5817 5815 5814 5812 5811 5809 5807 5806 5805
5832 5832 5831 5831 5830 5831 5830 5829 5830 5830 5829 5828 5828 5827 5826 5826 5824 5824 5823 5822 5821 5820 5819 5818 5817 5816 5815 5814 5813 5811 5810 5809 5808 5806 5805 5803 5802 5800 5799 5797 5795 5794 5792
5826 5826 5826 5826 5825 5825 5825 5824 5823 5823 5823 5822 5821 5820 5819 5818 5816 5815 5814 5813 5812 5810 5809 5808 5807 5806 5804 5803 5801 5800 5798 5796 5795 5793 5791 5790 5788 5786 5784 5783 5782 5780 5779
5820 5820 5820 5820 5819 5819 5818 5817 5816 5815 5814 5813 5812 5811 5810 5809 5808 5807 5805 5803 5801 5800 5798 5798 5796 5794 5792 5791 5789 5787 5785 5783 5781 5779 5777 5775 5773 5771 5768 5767 5766 5765 5763
5814 5814 5814 5813 5812 5812 5811 5810 5808 5807 5805 5804 5803 5801 5800 5799 5798 5797 5795 5793 5792 5790 5788 5787 5784 5782 5780 5778 5776 5774 5771 5769 5767 5765 5762 5759 5756 5754 5752 5750 5749 5747 5746
5808 5807 5807 5806 5805 5804 5803 5802 5800 5798 5796 5795 5794 5792 5791 5789 5787 5786 5784 5783 5782 5780 5778 5775 5773 5770 5767 5765 5762 5760 5757 5754 5752 5749 5746 5742 5739 5737 5734 5731 5729 5727 5725
5801 5800 5800 5799 5798 5797 5796 5794 5792 5790 5788 5786 5784 5782 5781 5779 5778 5776 5774 5772 5770 5768 5766 5763 5761 5757 5754 5751 5748 5745 5741 5738 5734 5731 5727 5724 5720 5717 5713 5710 5707 5704 5701
5795 5794 5792 5791 5790 5789 5787 5785 5783 5781 5779 5777 5775 5773 5771 5769 5767 5765 5764 5761 5759 5756 5753 5750 5747 5743 5739 5735 5732 5728 5723 5719 5715 5711 5707 5703 5699 5694 5691 5687 5683 5680 5677
5787 5786 5785 5783 5782 5780 5778 5776 5774 5773 5771 5769 5766 5764 5762 5760 5757 5755 5753 5750 5747 5743 5739 5736 5732 5727 5722 5718 5713 5708 5703 5698 5694 5689 5685 5680 5675 5670 5666 5663 5659 5655 5652
5779 5778 5777 5775 5773 5771 5769 5768 5766 5764 5762 5759 5757 5754 5752 5750 5747 5744 5741 5737 5733 5729 5724 5720 5715 5710 5705 5699 5693 5686 5681 5675 5670 5665 5661 5656 5651 5646 5641 5637 5634 5631 5627
5771 5770 5768 5766 5764 5762 5760 5758 5756 5754 5752 5749 5747 5744 5741 5738 5734 5731 5727 5722 5718 5713 5707 5702 5697 5691 5685 5679 5672 5665 5659 5652 5645 5640 5636 5631 5626 5621 5617 5613 5610 5606 5603